Hourly Weather Bartezek

Today, 19 April, Monday

Time Temperature Precipitation Wind Pressure Humidity
00:00 +7°C° 0.2 mm 2 mps 754 mmHg 94%
01:00 +6°C° 0.2 mm 2 mps 754 mmHg 94%
02:00 +6°C° 0 mm 2 mps 754 mmHg 93%
03:00 +6°C° 0 mm 2 mps 754 mmHg 92%
04:00 +6°C° 0 mm 2 mps 754 mmHg 92%
05:00 +7°C° 0 mm 2 mps 754 mmHg 88%
06:00 +8°C° 0 mm 3 mps 754 mmHg 85%
07:00 +9°C° 0 mm 3 mps 754 mmHg 81%
08:00 +11°C° 0.1 mm 3 mps 754 mmHg 76%
09:00 +13°C° 0.1 mm 3 mps 754 mmHg 71%
10:00 +14°C° 0.1 mm 4 mps 754 mmHg 66%
11:00 +16°C° 0.2 mm 3 mps 754 mmHg 59%
12:00 +17°C° 0.2 mm 3 mps 754 mmHg 53%
13:00 +17°C° 0.2 mm 3 mps 754 mmHg 47%
14:00 +17°C° 0.1 mm 3 mps 753 mmHg 49%
15:00 +16°C° 0.1 mm 3 mps 753 mmHg 52%
16:00 +15°C° 0.1 mm 4 mps 753 mmHg 55%
17:00 +13°C° 0 mm 3 mps 753 mmHg 60%
18:00 +13°C° 0 mm 2 mps 753 mmHg 65%
19:00 +10°C° 0 mm 2 mps 754 mmHg 69%
20:00 +10°C° 0 mm 2 mps 754 mmHg 72%
21:00 +9°C° 0 mm 2 mps 754 mmHg 75%
22:00 +8°C° 0 mm 2 mps 754 mmHg 77%
23:00 +8°C° 0 mm 2 mps 753 mmHg 78%

Tomorrow, 20 April, Tuesday

Time Temperature Precipitation Wind Pressure Humidity
00:00 +7°C° 0 mm 2 mps 753 mmHg 79%
01:00 +7°C° 0 mm 2 mps 753 mmHg 80%
02:00 +6°C° 0 mm 2 mps 753 mmHg 82%
03:00 +6°C° 0 mm 2 mps 753 mmHg 84%
04:00 +6°C° 0 mm 2 mps 753 mmHg 86%
05:00 +7°C° 0 mm 2 mps 753 mmHg 82%
06:00 +8°C° 0 mm 2 mps 753 mmHg 78%
07:00 +9°C° 0 mm 2 mps 753 mmHg 73%
08:00 +10°C° 0 mm 2 mps 753 mmHg 66%
09:00 +12°C° 0 mm 2 mps 752 mmHg 59%
10:00 +14°C° 0 mm 2 mps 752 mmHg 52%
11:00 +14°C° 0.1 mm 2 mps 752 mmHg 51%
12:00 +14°C° 0.1 mm 2 mps 751 mmHg 51%
13:00 +14°C° 0.1 mm 2 mps 751 mmHg 50%
14:00 +14°C° 0.3 mm 2 mps 751 mmHg 55%
15:00 +12°C° 0.3 mm 3 mps 751 mmHg 61%
16:00 +12°C° 0.3 mm 4 mps 750 mmHg 66%
17:00 +10°C° 0.1 mm 3 mps 750 mmHg 72%
18:00 +9°C° 0.1 mm 3 mps 750 mmHg 77%
19:00 +8°C° 0.1 mm 2 mps 750 mmHg 83%
20:00 +7°C° 0 mm 2 mps 750 mmHg 84%
21:00 +6°C° 0 mm 2 mps 750 mmHg 85%
22:00 +7°C° 0 mm 1 mps 750 mmHg 86%
23:00 +6°C° 0 mm 1 mps 749 mmHg 86%

Day after tomorrow, 21 April, Wednesday

Time Temperature Precipitation Wind Pressure Humidity
00:00 +5°C° 0 mm 2 mps 749 mmHg 86%
01:00 +5°C° 0 mm 2 mps 749 mmHg 86%
02:00 +4°C° 0 mm 2 mps 749 mmHg 86%
03:00 +4°C° 0 mm 2 mps 749 mmHg 87%
04:00 +4°C° 0 mm 2 mps 748 mmHg 87%
05:00 +5°C° 0 mm 2 mps 748 mmHg 82%
06:00 +6°C° 0 mm 2 mps 748 mmHg 78%
07:00 +8°C° 0 mm 2 mps 748 mmHg 73%
08:00 +9°C° 0 mm 2 mps 748 mmHg 67%
09:00 +12°C° 0 mm 2 mps 748 mmHg 61%
10:00 +12°C° 0 mm 3 mps 747 mmHg 55%
11:00 +12°C° 0 mm 3 mps 747 mmHg 54%
12:00 +13°C° 0 mm 3 mps 747 mmHg 52%
13:00 +13°C° 0 mm 3 mps 747 mmHg 51%
14:00 +13°C° 0 mm 3 mps 746 mmHg 52%
15:00 +13°C° 0 mm 3 mps 746 mmHg 53%
16:00 +13°C° 0 mm 3 mps 746 mmHg 54%
17:00 +11°C° 0.1 mm 3 mps 746 mmHg 63%
18:00 +10°C° 0.1 mm 3 mps 746 mmHg 71%
19:00 +8°C° 0.1 mm 3 mps 746 mmHg 80%
20:00 +7°C° 0.2 mm 3 mps 746 mmHg 81%
21:00 +5°C° 0.2 mm 3 mps 747 mmHg 82%
22:00 +4°C° 0.2 mm 3 mps 747 mmHg 84%
23:00 +3°C° 0 mm 4 mps 747 mmHg 84%

22 April, Thursday

Time Temperature Precipitation Wind Pressure Humidity
00:00 +3°C° 0 mm 4 mps 747 mmHg 83%
01:00 +1°C° 0 mm 5 mps 746 mmHg 83%
02:00 +1°C° 0 mm 5 mps 746 mmHg 82%
03:00 0°C° 0 mm 5 mps 746 mmHg 82%
04:00 -1°C° 0 mm 6 mps 746 mmHg 81%
05:00 -1°C° 0 mm 6 mps 746 mmHg 79%
06:00 +1°C° 0 mm 6 mps 747 mmHg 77%
07:00 0°C° 0 mm 7 mps 747 mmHg 74%
08:00 +2°C° 0 mm 7 mps 747 mmHg 70%
09:00 +3°C° 0 mm 7 mps 747 mmHg 65%
10:00 +4°C° 0 mm 8 mps 747 mmHg 61%
11:00 +4°C° 0 mm 8 mps 747 mmHg 60%
12:00 +4°C° 0 mm 8 mps 748 mmHg 60%
13:00 +4°C° 0 mm 8 mps 748 mmHg 60%
14:00 +4°C° 0 mm 7 mps 748 mmHg 60%
15:00 +4°C° 0 mm 7 mps 748 mmHg 61%
16:00 +4°C° 0 mm 7 mps 748 mmHg 62%
17:00 +4°C° 0.1 mm 6 mps 748 mmHg 65%
18:00 +3°C° 0.1 mm 6 mps 748 mmHg 69%
19:00 +2°C° 0.1 mm 6 mps 748 mmHg 73%
20:00 +2°C° 0 mm 6 mps 748 mmHg 75%
21:00 +1°C° 0 mm 6 mps 748 mmHg 77%
22:00 +1°C° 0 mm 6 mps 748 mmHg 80%
23:00 +1°C° 0.1 mm 6 mps 748 mmHg 85%

23 April, Friday

Time Temperature Precipitation Wind Pressure Humidity
00:00 +1°C° 0.1 mm 5 mps 748 mmHg 89%
01:00 +1°C° 0.1 mm 5 mps 748 mmHg 94%
02:00 +1°C° 0.1 mm 5 mps 749 mmHg 94%
03:00 +1°C° 0.1 mm 4 mps 749 mmHg 94%
04:00 +1°C° 0.1 mm 4 mps 749 mmHg 93%
05:00 +1°C° 0.1 mm 4 mps 750 mmHg 92%
06:00 +3°C° 0.1 mm 4 mps 750 mmHg 90%
07:00 +2°C° 0.1 mm 5 mps 751 mmHg 89%
08:00 +3°C° 0.6 mm 4 mps 751 mmHg 92%
09:00 +1°C° 0.6 mm 4 mps 752 mmHg 94%
10:00 +2°C° 0.6 mm 3 mps 752 mmHg 97%
11:00 +3°C° 0.2 mm 3 mps 753 mmHg 88%
12:00 +4°C° 0.2 mm 4 mps 753 mmHg 80%
13:00 +5°C° 0.2 mm 4 mps 753 mmHg 72%
14:00 +5°C° 0.1 mm 4 mps 753 mmHg 65%
15:00 +6°C° 0.1 mm 4 mps 753 mmHg 58%
16:00 +6°C° 0.1 mm 5 mps 754 mmHg 51%
17:00 +5°C° 0 mm 3 mps 754 mmHg 56%
18:00 +4°C° 0 mm 2 mps 754 mmHg 61%
19:00 +4°C° 0 mm 1 mps 753 mmHg 67%
20:00 +3°C° 0.2 mm 2 mps 753 mmHg 72%
21:00 +2°C° 0.2 mm 3 mps 753 mmHg 77%
22:00 +1°C° 0.2 mm 3 mps 753 mmHg 82%
23:00 +1°C° 0.1 mm 3 mps 753 mmHg 87%

24 April, Saturday

Time Temperature Precipitation Wind Pressure Humidity
00:00 0°C° 0.1 mm 4 mps 752 mmHg 92%
01:00 0°C° 0.1 mm 4 mps 751 mmHg 96%
02:00 +1°C° 0.2 mm 4 mps 751 mmHg 95%
03:00 +1°C° 0.2 mm 4 mps 751 mmHg 95%
04:00 +1°C° 0.2 mm 5 mps 750 mmHg 94%
05:00 +2°C° 0 mm 5 mps 750 mmHg 91%
06:00 +2°C° 0 mm 5 mps 750 mmHg 88%
07:00 +3°C° 0 mm 6 mps 751 mmHg 85%
08:00 +3°C° 0 mm 6 mps 751 mmHg 78%
09:00 +5°C° 0 mm 5 mps 751 mmHg 71%
10:00 +5°C° 0 mm 5 mps 752 mmHg 65%
11:00 +6°C° 0 mm 5 mps 752 mmHg 57%
12:00 +6°C° 0 mm 5 mps 752 mmHg 50%
13:00 +7°C° 0 mm 5 mps 752 mmHg 43%
14:00 +7°C° 0 mm 5 mps 752 mmHg 44%
15:00 +6°C° 0 mm 5 mps 752 mmHg 46%
16:00 +6°C° 0 mm 5 mps 753 mmHg 48%
17:00 +3°C° 0 mm 5 mps 753 mmHg 55%
18:00 +1°C° 0 mm 4 mps 753 mmHg 63%
19:00 +1°C° 0 mm 3 mps 754 mmHg 70%
20:00 0°C° 0 mm 3 mps 754 mmHg 74%
21:00 -1°C° 0 mm 3 mps 754 mmHg 77%
22:00 -1°C° 0 mm 3 mps 755 mmHg 81%
23:00 -1°C° 0 mm 3 mps 755 mmHg 84%
Show more